Tracking 29892 objects as of 21-Nov-2024
HD Live streaming from Space Station
objects crossing your sky now

STARLINK-11263

Track STARLINK-11263 now!
10-day predictions
STARLINK-11263 is classified as:


NORAD ID: 60725
Int'l Code: 2024-152F
Perigee: 365.6 km
Apogee: 368.0 km
Inclination: 53.2 °
Period: 91.7 minutes
Semi major axis: 6737 km
RCS: Unknown
Launch date: August 28, 2024
Source: United States (US)
Launch site: AIR FORCE EASTERN TEST RANGE (AFETR)
Your satellite tracking list
Your tracking list is empty




NASA's NSSDC Master Catalog

Two Line Element Set (TLE):
1 60725U 24152F   24325.92000311 -.00002703  00000-0 -17437-4 0  9996
2 60725  53.1591 291.8042 0001793 104.9598 255.1618 15.69722277 14447
Source of the keplerian elements: AFSPC